Regional Weather Roundup
Issued by NWS Bismarck, ND

Home | Current Version | Previous Version | Text Only | Print | Product List | Glossary On
Versions: 1 2 3 4 5 6 7 8 9 10 11 12 13 14 15 16 17 18 19 20 21 22 23 24 25 26 27 28 29 30 31 32 33 34 35 36 37 38 39 40 41 42 43 44 45 46 47 48 49 50
000
ASUS43 KBIS 280410
RWRBIS

NWR BROADCAST TEXT
NATIONAL WEATHER SERVICE BISMARCK ND
1100 PM CDT MON MAR 27 2017

NOTE: "FAIR" INDICATES FEW OR NO CLOUDS BELOW 12,000 FEET WITH NO
SIGNIFICANT WEATHER AND/OR OBSTRUCTIONS TO VISIBILITY.


CITY           SKY/WX    TMP DP  RH WIND       PRES   REMARKS
WILLISTON      CLOUDY    40  36  86 NE9       30.01R
MINOT          FOG       37  36  96 E6        30.04R VSB 1/4
MINOT AFB      FOG       35  35  99 E6        30.03R VSB 1/2
BISMARCK       FAIR      43  35  73 NE7       30.00R
DICKINSON      FAIR      40  31  70 SE6       29.94R
GARRISON         N/A     36  35  96 E10G18    30.00S
HETTINGER ARPT FAIR      40  30  67 SE6       29.97R
JAMESTOWN      FAIR      40  37  89 SE9       30.01R
HAZEN          FAIR      37  37 100 E7        30.02R FOG
LINTON           N/A     39  39 100 SE5       30.02R
MANDAN         FAIR      43  34  70 NE7       30.00R
STANLEY        CLOUDY    34  34 100 VRB5      30.04R FOG
TIOGA          MOCLDY    36  36 100 CALM      30.05R
WATFORD CITY   FAIR      41  36  81 NE6G13    30.01R
$$

CITY           SKY/WX    TMP DP  RH WIND       PRES   REMARKS
GRAND FORKS    FOG       36  36 100 N9        30.08R VSB 1/2
GRAND FORKS AF FOG       35  35 100 N6        30.08S VSB 3/4
DEVILS LAKE    NOT AVBL
FARGO          FOG       39  38  96 N12       30.05R VSB 1
CAVALIER       MOCLDY    34  32  93 NW9       30.10R
GRAFTON        MOCLDY    34  34 100 N8        30.10R FOG
GWINNER        CLEAR     39  36  87 MISG      30.03R
LANGDON        CLOUDY    34  34 100 NE8       30.08R
ROLLA          CLOUDY    32  32 100 NE10      30.09R
$$

CITY           SKY/WX    TMP DP  RH WIND       PRES   REMARKS
ABERDEEN       CLOUDY    44  32  62 N3        30.01R
MOBRIDGE       FAIR      43  33  68 E3        29.96R
BUFFALO          N/A     45  35  68 SE12      29.88R
RAPID CITY     FAIR      47  35  63 E12       29.93R
GLASGOW        FAIR      42  34  73 E12       29.94R
SIDNEY         LGT RAIN  47  41  80 N12       29.98R
WOLF POINT     FAIR      44  38  79 NE10      29.96R
GLENDIVE       FAIR      48  36  63 NE12      29.93R
MILES CITY     CLOUDY    50  37  61 NE5       29.90R
BAKER          CLOUDY    49  34  56 CALM      29.94R
$$

CITY           SKY/WX    TMP DP  RH WIND       PRES   REMARKS
BILLINGS       CLOUDY    51  34  52 N13       29.94R
GREAT FALLS    LGT RAIN  41  36  82 VRB7      30.00R
REGINA         CLOUDY    36  36 100 E13       30.05R
ESTEVAN        CLOUDY    34  34 100 E8        30.06R FOG
$$





USA.gov is the U.S. government's official web portal to all federal, state and local government web resources and services.